Cedar Rapids, IA

8:33 PM CST on November 14, 2019 (GMT -0600)
The Eastern Iowa Airport

Weather History for KCID - September, 2019

Change the Weather History Date:

Saturday, September 14, 2019

  Actual Average Record
Temperature  
Mean Temperature 64 °F 64 °F  
Max Temperature 76 °F 75 °F 96 °F (1939)
Min Temperature 51 °F 52 °F 35 °F (1923)
Degree Days  
Heating Degree Days 1 4  
Month to date heating degree days 12 34  
Since 1 July heating degree days 20 53  
Cooling Degree Days 0 2  
Month to date cooling degree days 56 49  
Year to date cooling degree days 708 717  
Growing Degree Days 14 (Base 50)    
Moisture  
Dew Point 59 °F    
Average Humidity 79    
Maximum Humidity 100    
Minimum Humidity 57    
Precipitation  
Precipitation 0.40 in 0.11 in 2.78 in (1967)
Month to date precipitation 2.42 1.57  
Year to date precipitation 30.27 26.87  
Sea Level Pressure  
Sea Level Pressure 30.11 in    
Wind  
Wind Speed 7 mph (South)    
Max Wind Speed 18 mph    
Max Gust Speed 26 mph    
Visibility 10 miles    
Events Rain , Thunderstorm    
T = Trace of Precipitation, MM = Missing Value Source: NWS Daily Summary

Daily Weather History Graph

Daily Weather History Graph

Search for Another Location

Airport or City:

Astronomy

Sep. 14, 2019 Rise Set
Actual Time 6:45 AM CDT 7:18 PM CDT
Civil Twilight 6:17 AM CDT 7:46 PM CDT
Nautical Twilight 5:44 AM CDT 8:19 PM CDT
Astronomical Twilight 5:10 AM CDT 8:53 PM CDT
Moon 7:59 PM CDT (9/14) 6:59 AM CDT (9/14)
Length of Visible Light 13h 28m
Length of Day
12h 32m
Full, 100% of the Moon is Illuminated
Sep 14
Full
Sep 21
Last Quarter
Sep 28
New
Oct 5
First Quarter
Oct 13
Full

Hourly Weather History & Observations

Time (CDT) Temp. Dew Point Humidity Pressure Visibility Wind Dir Wind Speed Gust Speed Precip Events Conditions
12:52 AM 54.0 °F 53.1 °F 97% 30.15 in 10.0 mi Calm Calm - N/A   Unknown
1:52 AM 53.1 °F 53.1 °F 100% 30.16 in 10.0 mi Calm Calm - N/A   Unknown
2:52 AM 52.0 °F 52.0 °F 100% 30.15 in 10.0 mi Calm Calm - N/A   Clear
3:52 AM 52.0 °F 52.0 °F 100% 30.16 in 10.0 mi South 3.5 mph - N/A   Clear
4:52 AM 53.1 °F 53.1 °F 100% 30.16 in 10.0 mi Calm Calm - N/A   Clear
5:52 AM 52.0 °F 52.0 °F 100% 30.16 in 10.0 mi SSE 4.6 mph - N/A   Clear
6:52 AM 52.0 °F 52.0 °F 100% 30.16 in 10.0 mi SSE 3.5 mph - N/A   Clear
7:52 AM 55.9 °F 55.9 °F 100% 30.17 in 10.0 mi South 8.1 mph - N/A   Clear
8:52 AM 64.0 °F 61.0 °F 90% 30.17 in 10.0 mi SSW 5.8 mph - N/A   Clear
9:52 AM 69.1 °F 62.1 °F 78% 30.18 in 10.0 mi SW 8.1 mph - N/A   Clear
10:52 AM 73.0 °F 60.1 °F 64% 30.19 in 10.0 mi SSW 10.4 mph - N/A   Clear
11:52 AM 75.0 °F 60.1 °F 60% 30.17 in 10.0 mi SW 10.4 mph - N/A   Partly Cloudy
12:52 PM 75.0 °F 61.0 °F 62% 30.17 in 10.0 mi SSW 9.2 mph - N/A   Partly Cloudy
1:52 PM 75.0 °F 61.0 °F 62% 30.14 in 10.0 mi SSW 11.5 mph - N/A   Clear
2:52 PM 73.0 °F 60.1 °F 64% 30.08 in 10.0 mi South 13.8 mph 21.9 mph N/A   Clear
3:52 PM 73.9 °F 59.0 °F 59% 30.03 in 10.0 mi South 15.0 mph 23.0 mph N/A   Clear
4:52 PM 73.9 °F 60.1 °F 62% 30.01 in 10.0 mi South 10.4 mph 20.7 mph N/A   Clear
5:52 PM 73.0 °F 57.9 °F 59% 30.01 in 10.0 mi South 8.1 mph - N/A   Clear
6:52 PM 69.1 °F 61.0 °F 75% 30.04 in 9.0 mi South 8.1 mph - 0.01 in Rain Light Rain
7:52 PM 66.0 °F 62.1 °F 87% 30.06 in 6.0 mi Calm Calm - 0.03 in Rain Light Rain
8:17 PM 64.9 °F 63.0 °F 93% 30.04 in 10.0 mi SE 6.9 mph - 0.02 in Rain , Thunderstorm Light Rain
8:52 PM 64.9 °F 63.0 °F 93% 30.08 in 10.0 mi SSW 4.6 mph - 0.03 in Rain , Thunderstorm Light Rain
9:07 PM 64.9 °F 63.0 °F 93% 30.09 in 3.0 mi South 6.9 mph - 0.08 in Rain , Thunderstorm Heavy Thunderstorms and Rain
9:26 PM 64.9 °F 63.0 °F 93% 30.07 in 10.0 mi SSE 9.2 mph - 0.11 in   Overcast
9:52 PM 66.9 °F 64.0 °F 90% 30.06 in 10.0 mi SSE 9.2 mph - 0.11 in   Overcast
10:52 PM 66.9 °F 64.0 °F 90% 30.04 in 10.0 mi SSE 8.1 mph - N/A   Unknown
11:50 PM 69.8 °F 62.6 °F 78% 30.03 in 10.0 mi SSE 9.2 mph - N/A Thunderstorm Unknown
11:52 PM 69.1 °F 63.0 °F 81% 30.01 in 10.0 mi SSE 8.1 mph - N/A Thunderstorm Unknown